EW6266 Weather Reports


Display with metric or nautical units.
time (UTC)temp
F
wind
direction
speed
MPH
gust
MPH
rain 1hr
in
rain 24hr
in
rain mn
in
humidity
%
barometer
mb
20260509183031 65 238 3.0 8.0 0.00 0.00 0.00 58 1016.6
20260509181528 65 209 4.0 8.0 0.00 0.00 0.00 58 1016.8
20260509180026 64 202 3.0 10.0 0.00 0.00 0.00 60 1017.0
20260509174523 63 173 4.0 8.0 0.00 0.00 0.00 60 1016.9
20260509173020 62 214 4.0 10.0 0.00 0.00 0.00 63 1016.9
20260509171532 62 215 1.0 7.0 0.00 0.00 0.00 61 1016.9
20260509170025 60 224 1.0 7.0 0.00 0.00 0.00 65 1017.0
20260509164513 60 223 5.0 8.0 0.00 0.00 0.00 66 1017.3
20260509163013 59 227 2.0 7.0 0.00 0.00 0.00 66 1017.2
20260509161506 59 266 4.0 10.0 0.00 0.00 0.00 69 1017.3
20260509160004 58 244 3.0 9.0 0.00 0.00 0.00 70 1017.3
20260509154602 57 220 4.0 8.0 0.00 0.00 0.00 73 1017.4
20260509153100 57 187 3.0 7.0 0.00 0.00 0.00 73 1017.3
20260509151555 55 158 2.0 7.0 0.00 0.00 0.00 76 1017.2
20260509150052 53 155 3.0 7.0 0.00 0.00 0.00 80 1017.3
20260509144544 51 109 4.0 7.0 0.00 0.00 0.00 81 1017.3
20260509143040 49 160 2.0 5.0 0.00 0.00 0.00 85 1017.2
20260509141537 47 111 2.0 4.0 0.00 0.00 0.00 87 1017.1
20260509140032 45 111 3.0 4.0 0.00 0.00 0.00 88 1017.1
20260509134530 43 144 2.0 3.0 0.00 0.00 0.00 88 1017.2
20260509133029 42 257 0.0 1.0 0.00 0.00 0.00 89 1017.1
20260509131539 39 257 0.0 0.0 0.00 0.00 0.00 89 1017.1
20260509130033 38 257 0.0 2.0 0.00 0.00 0.00 90 1017.1
20260509124525 38 258 2.0 4.0 0.00 0.00 0.00 87 1017.0
20260509123024 39 197 0.0 2.0 0.00 0.00 0.00 90 1017.0
20260509121527 39 197 0.0 2.0 0.00 0.00 0.00 88 1016.9
20260509120022 39 192 3.0 4.0 0.00 0.00 0.00 90 1016.7
20260509114526 39 175 1.0 4.0 0.00 0.00 0.00 87 1016.8
20260509113016 40 201 0.0 3.0 0.00 0.00 0.00 87 1016.8
20260509111512 41 201 0.0 0.0 0.00 0.00 0.00 86 1016.9
20260509110012 42 201 0.0 1.0 0.00 0.00 0.00 88 1016.8
20260509104511 42 201 0.0 2.0 0.00 0.00 0.00 89 1016.8
20260509103009 41 201 0.0 2.0 0.00 0.00 0.00 87 1016.7
20260509101506 42 209 2.0 3.0 0.00 0.00 0.00 86 1016.6
20260509100005 43 215 2.0 5.0 0.00 0.00 0.00 85 1016.4
20260509094600 44 119 2.0 4.0 0.00 0.00 0.00 85 1016.5
20260509093100 44 180 0.0 3.0 0.00 0.00 0.00 84 1016.5
20260509091556 46 198 1.0 5.0 0.00 0.00 0.00 81 1016.3
20260509090051 48 269 5.0 10.0 0.00 0.00 0.00 81 1016.2
20260509084551 48 281 6.0 10.0 0.00 0.00 0.00 81 1016.1
20260509083049 48 272 7.0 11.0 0.00 0.00 0.00 80 1016.1
20260509081550 49 254 5.0 11.0 0.00 0.00 0.00 79 1016.1
20260509080045 49 280 8.0 12.0 0.00 0.00 0.00 79 1015.8
20260509074553 49 274 7.0 12.0 0.00 0.00 0.00 78 1016.0
20260509073040 48 271 6.0 10.0 0.00 0.00 0.00 79 1015.8
20260509071537 49 272 6.0 10.0 0.00 0.00 0.00 78 1015.7
20260509070035 49 276 6.0 13.0 0.00 0.00 0.00 78 1015.5
20260509064540 49 288 3.0 7.0 0.00 0.00 0.00 76 1015.5
20260509063030 51 246 5.0 12.0 0.00 0.00 0.00 74 1015.4
20260509061530 51 296 9.0 14.0 0.00 0.00 0.00 72 1015.2
20260509060029 52 268 7.0 14.0 0.00 0.00 0.00 71 1015.4
20260509054528 52 296 9.0 13.0 0.00 0.00 0.00 69 1015.1
20260509053027 53 273 6.0 13.0 0.00 0.00 0.00 68 1015.2
20260509051533 54 273 10.0 15.0 0.00 0.00 0.00 66 1014.9
20260509050023 54 267 9.0 13.0 0.00 0.00 0.00 65 1014.7
20260509044522 54 276 9.0 15.0 0.00 0.00 0.00 64 1014.6
20260509043020 52 254 8.0 11.0 0.00 0.00 0.00 67 1014.4
20260509041518 52 261 3.0 7.0 0.00 0.00 0.00 66 1014.4
20260509040016 53 270 3.0 7.0 0.00 0.00 0.00 64 1014.1
20260509034535 54 258 3.0 8.0 0.00 0.00 0.00 61 1013.7
20260509033013 55 261 4.0 8.0 0.00 0.00 0.00 59 1013.5
20260509031511 55 258 3.0 8.0 0.00 0.00 0.00 58 1013.2
20260509030010 59 248 2.0 8.0 0.00 0.00 0.00 53 1013.1
20260509024508 61 248 6.0 13.0 0.00 0.00 0.00 47 1012.8
20260509023008 62 257 7.0 15.0 0.00 0.00 0.00 45 1012.6
20260509021508 64 258 12.0 19.0 0.00 0.00 0.00 41 1012.5
20260509020005 65 265 10.0 19.0 0.00 0.00 0.00 40 1012.3
20260509014505 66 258 14.0 21.0 0.00 0.00 0.00 38 1012.2
20260509013004 67 258 12.0 22.0 0.00 0.00 0.00 37 1012.2
20260509011502 67 263 14.0 23.0 0.00 0.00 0.00 35 1012.1
20260509010003 68 271 15.0 23.0 0.00 0.00 0.00 36 1011.8
20260509004501 68 266 16.0 24.0 0.00 0.00 0.00 35 1012.0
20260509003002 69 280 14.0 26.0 0.00 0.00 0.00 35 1011.9
20260509001602 69 261 17.0 23.0 0.00 0.00 0.00 31 1011.9
20260509000100 69 253 16.0 24.0 0.00 0.00 0.00 30 1011.7
20260508234606 69 239 15.0 23.0 0.00 0.00 0.00 30 1011.8
20260508233059 69 270 16.0 25.0 0.00 0.00 0.00 28 1012.0
20260508231559 69 265 16.0 26.0 0.00 0.00 0.00 29 1012.0
20260508230058 70 257 15.0 25.0 0.00 0.00 0.00 27 1011.9
20260508224559 69 257 14.0 23.0 0.00 0.00 0.00 25 1012.0
20260508223057 71 267 14.0 21.0 0.00 0.00 0.00 23 1011.9
20260508221557 71 252 16.0 24.0 0.00 0.00 0.00 21 1012.0
20260508220059 71 263 16.0 23.0 0.00 0.00 0.00 21 1012.1
20260508214604 69 275 14.0 25.0 0.00 0.00 0.00 28 1012.1
20260508213052 69 254 18.0 30.0 0.00 0.00 0.00 26 1012.2
20260508211550 66 272 13.0 25.0 0.00 0.00 0.00 38 1012.1
20260508210053 67 272 12.0 24.0 0.00 0.00 0.00 43 1012.1
20260508204550 70 276 18.0 28.0 0.00 0.00 0.00 36 1011.9
20260508203048 67 246 16.0 24.0 0.00 0.00 0.00 41 1011.9
20260508201546 67 236 13.0 21.0 0.00 0.00 0.00 45 1011.9
20260508200045 70 290 11.0 20.0 0.00 0.00 0.00 45 1011.9
20260508194542 68 282 15.0 23.0 0.00 0.00 0.00 44 1011.8
20260508193051 66 223 10.0 17.0 0.00 0.00 0.00 50 1011.7
20260508191549 66 205 9.0 19.0 0.00 0.00 0.00 52 1012.0
20260508190051 67 218 10.0 18.0 0.00 0.00 0.00 50 1012.1
20260508184536 65 228 11.0 18.0 0.00 0.00 0.00 53 1012.2